| time (UTC) | temp C | wind direction | speed KPH | gust KPH | rain 1hr cm | rain 24hr cm | rain mn cm | humidity % | barometer mb |
| 20260505025121 | 11 | 0.0 | 1.6 | 0.00 | 0.00 | 0.00 | 88 | 1010.1 | |
| 20260505023120 | 11 | 67 | 1.6 | 6.4 | 0.00 | 0.00 | 0.00 | 87 | 1009.9 |
| 20260505021119 | 11 | 67 | 1.6 | 4.8 | 0.00 | 0.00 | 0.00 | 87 | 1010.0 |
| 20260505015120 | 11 | 67 | 1.6 | 6.4 | 0.00 | 0.00 | 0.00 | 87 | 1010.1 |
| 20260505013120 | 11 | 67 | 1.6 | 4.8 | 0.00 | 0.00 | 0.00 | 87 | 1010.3 |
| 20260505011119 | 12 | 67 | 1.6 | 6.4 | 0.00 | 0.00 | 0.00 | 87 | 1010.4 |
| 20260505005119 | 12 | 45 | 1.6 | 4.8 | 0.00 | 0.00 | 0.00 | 87 | 1010.6 |
| 20260505003120 | 12 | 45 | 1.6 | 4.8 | 0.00 | 0.00 | 0.00 | 87 | 1010.6 |
| 20260505001119 | 12 | 45 | 3.2 | 8.0 | 0.00 | 0.00 | 0.00 | 86 | 1010.6 |
| 20260504235120 | 12 | 67 | 3.2 | 6.4 | 0.00 | 0.00 | 0.00 | 86 | 1010.7 |
| 20260504233120 | 12 | 45 | 3.2 | 8.0 | 0.00 | 0.00 | 0.00 | 86 | 1010.6 |
| 20260504231121 | 12 | 22 | 3.2 | 9.7 | 0.00 | 0.00 | 0.00 | 86 | 1010.7 |
| 20260504225118 | 12 | 67 | 3.2 | 11.3 | 0.00 | 0.00 | 0.00 | 86 | 1010.8 |
| 20260504223120 | 12 | 67 | 3.2 | 8.0 | 0.00 | 0.00 | 0.00 | 85 | 1011.0 |
| 20260504221119 | 12 | 67 | 3.2 | 6.4 | 0.00 | 0.00 | 0.00 | 85 | 1011.1 |
| 20260504215121 | 12 | 67 | 1.6 | 6.4 | 0.00 | 0.00 | 0.00 | 85 | 1011.3 |
| 20260504213119 | 12 | 67 | 4.8 | 9.7 | 0.00 | 0.00 | 0.00 | 85 | 1011.3 |
| 20260504211119 | 12 | 45 | 3.2 | 8.0 | 0.00 | 0.00 | 0.00 | 84 | 1011.3 |
| 20260504205121 | 12 | 22 | 3.2 | 8.0 | 0.00 | 0.00 | 0.00 | 84 | 1011.4 |
| 20260504203120 | 12 | 22 | 3.2 | 12.9 | 0.00 | 0.00 | 0.00 | 83 | 1011.3 |
| 20260504201121 | 13 | 45 | 1.6 | 8.0 | 0.00 | 0.00 | 0.00 | 82 | 1011.1 |
| 20260504195121 | 13 | 45 | 1.6 | 6.4 | 0.00 | 0.00 | 0.00 | 82 | 1011.0 |
| 20260504193120 | 13 | 22 | 3.2 | 12.9 | 0.00 | 0.00 | 0.00 | 81 | 1010.8 |
| 20260504191119 | 13 | 0.0 | 3.2 | 0.00 | 0.00 | 0.00 | 80 | 1010.9 | |
| 20260504185120 | 13 | 0.0 | 0.0 | 0.00 | 0.00 | 0.00 | 80 | 1010.6 | |
| 20260504183119 | 13 | 0 | 3.2 | 6.4 | 0.00 | 0.00 | 0.00 | 79 | 1010.6 |
| 20260504181121 | 14 | 0.0 | 4.8 | 0.00 | 0.00 | 0.00 | 78 | 1010.5 | |
| 20260504175119 | 14 | 0.0 | 0.0 | 0.00 | 0.00 | 0.00 | 78 | 1010.6 | |
| 20260504173120 | 14 | 67 | 1.6 | 4.8 | 0.00 | 0.00 | 0.00 | 77 | 1010.6 |
| 20260504171120 | 15 | 67 | 1.6 | 4.8 | 0.00 | 0.00 | 0.00 | 77 | 1010.6 |
| 20260504151116 | 16 | 292 | 8.0 | 16.1 | 0.00 | 0.00 | 0.00 | 72 | 1010.4 |
| 20260504141117 | 17 | 292 | 14.5 | 24.1 | 0.00 | 0.00 | 0.00 | 72 | 1010.6 |
| 20260504081116 | 12 | 0.0 | 1.6 | 0.00 | 0.00 | 0.00 | 90 | 1011.2 | |
| 20260504045117 | 7 | 0.0 | 0.0 | 0.00 | 0.05 | 0.00 | 88 | 1010.0 | |
| 20260504043117 | 7 | 0.0 | 0.0 | 0.00 | 0.05 | 0.00 | 88 | 1010.2 | |
| 20260504041117 | 7 | 0.0 | 0.0 | 0.00 | 0.05 | 0.00 | 88 | 1010.1 | |
| 20260504035117 | 7 | 0.0 | 0.0 | 0.00 | 0.08 | 0.00 | 87 | 1010.1 | |
| 20260504033117 | 7 | 0.0 | 0.0 | 0.00 | 0.08 | 0.00 | 88 | 1010.1 | |
| 20260504031117 | 7 | 0.0 | 0.0 | 0.00 | 0.08 | 0.00 | 88 | 1010.1 |